FW0810 Weather Reports


time (UTC)temp
F
wind
direction
speed
knots
gust
knots
rain 1hr
in
rain 24hr
in
rain mn
in
humidity
%
barometer
mb
20260503184502 67 281 0.0 0.0 0.00 0.00 0.00 59 1020.6
20260503184000 67 304 0.0 0.0 0.00 0.00 0.00 58 1020.6
20260503183502 67 306 0.0 0.0 0.00 0.00 0.00 58 1020.5
20260503183001 68 307 0.0 0.9 0.00 0.00 0.00 58 1020.6
20260503182503 68 279 0.0 0.9 0.00 0.00 0.00 58 1020.5
20260503182001 68 279 0.0 2.6 0.00 0.00 0.00 58 1020.5
20260503181459 68 281 0.0 2.6 0.00 0.00 0.00 58 1020.5
20260503180457 69 297 0.0 0.0 0.00 0.00 0.00 56 1020.4
20260503175956 70 297 0.0 0.9 0.00 0.00 0.00 55 1020.4
20260503175454 70 298 0.0 0.9 0.00 0.00 0.00 53 1020.4
20260503174451 71 303 0.0 0.9 0.00 0.00 0.00 51 1020.4
20260503173948 72 316 0.0 0.9 0.00 0.00 0.00 50 1020.3
20260503173447 73 342 0.0 0.9 0.00 0.00 0.00 48 1020.3
20260503171943 74 300 0.0 0.0 0.00 0.00 0.00 45 1020.2
20260503171441 75 305 0.0 0.0 0.00 0.00 0.00 43 1020.3
20260503170439 76 294 0.0 0.0 0.00 0.00 0.00 40 1020.2
20260503150417 77 266 0.9 6.1 0.00 0.00 0.00 42 1020.5
20260503131345 77 350 1.7 7.8 0.00 0.00 0.00 39 1021.7
20260503130837 77 226 1.7 7.8 0.00 0.00 0.00 41 1021.7
20260503130331 77 271 0.9 6.1 0.00 0.00 0.00 41 1021.7
20260503120218 76 346 0.9 7.0 0.00 0.00 0.00 39 1022.1
20260503110201 73 189 0.9 4.3 0.00 0.00 0.00 45 1022.3
20260503100151 71 161 0.9 3.5 0.00 0.00 0.00 51 1023.0
20260503090147 66 108 0.9 4.3 0.00 0.00 0.00 63 1023.6
20260503081135 61 139 0.9 2.6 0.00 0.00 0.00 69 1023.9
20260503080630 61 150 0.0 3.5 0.00 0.00 0.00 70 1024.0
20260503080124 60 143 0.0 3.5 0.00 0.00 0.00 70 1024.0
20260503072542 58 116 0.0 2.6 0.00 0.00 0.00 73 1024.2
20260503072036 58 120 0.0 2.6 0.00 0.00 0.00 72 1024.4
20260503071531 57 124 0.0 2.6 0.00 0.00 0.00 73 1024.4
20260503070517 57 98 0.0 2.6 0.00 0.00 0.00 72 1024.5
20260503054953 47 276 0.0 0.9 0.00 0.00 0.00 86 1024.6
20260503054453 47 276 0.0 0.0 0.00 0.00 0.00 87 1024.5
20260503053504 46 276 0.0 0.0 0.00 0.00 0.00 87 1024.4
20260503052948 45 276 0.0 0.0 0.00 0.00 0.00 87 1024.4
20260503052446 45 276 0.0 0.9 0.00 0.00 0.00 88 1024.4
20260503051945 44 276 0.0 0.9 0.00 0.00 0.00 88 1024.2
20260503051442 44 275 0.0 0.0 0.00 0.00 0.00 88 1024.4
20260503050935 44 275 0.0 0.0 0.00 0.00 0.00 88 1024.4
20260503045936 43 275 0.0 0.0 0.00 0.00 0.00 88 1024.2
20260503045433 43 275 0.0 0.0 0.00 0.00 0.00 88 1024.4
20260503044429 42 275 0.0 0.0 0.00 0.00 0.00 88 1024.2
20260503043932 42 275 0.0 0.0 0.00 0.00 0.00 88 1024.2
20260503043430 42 275 0.0 0.0 0.00 0.00 0.00 88 1024.1
20260503042929 42 275 0.0 0.0 0.00 0.00 0.00 88 1024.1
20260503042430 42 275 0.0 0.0 0.00 0.00 0.00 88 1024.1
20260503041928 42 275 0.0 0.0 0.00 0.00 0.00 87 1024.0
20260503041425 42 275 0.0 0.0 0.00 0.00 0.00 87 1024.0
20260503040926 42 275 0.0 0.0 0.00 0.00 0.00 87 1024.1
20260503035926 42 275 0.0 0.0 0.00 0.00 0.00 87 1024.0
20260503035427 42 275 0.0 0.0 0.00 0.00 0.00 87 1023.9
20260503034926 42 275 0.0 0.0 0.00 0.00 0.00 87 1024.0
20260503033938 42 275 0.0 0.0 0.00 0.00 0.00 86 1023.9
20260503033420 43 275 0.0 0.0 0.00 0.00 0.00 87 1023.9
20260503032913 43 275 0.0 0.0 0.00 0.00 0.00 86 1023.9
20260503031928 43 275 0.0 0.0 0.00 0.00 0.00 86 1023.9
20260503031413 43 275 0.0 0.0 0.00 0.00 0.00 86 1023.9
20260503030913 43 275 0.0 0.0 0.00 0.00 0.00 86 1023.8
20260503030414 43 275 0.0 0.0 0.00 0.00 0.00 86 1023.8
20260503025914 43 275 0.0 0.0 0.00 0.00 0.00 86 1023.8
20260503025413 43 274 0.0 0.0 0.00 0.00 0.00 86 1023.8
20260503024409 43 274 0.0 0.0 0.00 0.00 0.00 86 1023.8
20260503023407 44 275 0.0 0.0 0.00 0.00 0.00 85 1023.7
20260503022908 44 275 0.0 0.0 0.00 0.00 0.00 85 1023.7
20260503022405 44 275 0.0 0.0 0.00 0.00 0.00 85 1023.7
20260503021404 44 275 0.0 0.0 0.00 0.00 0.00 85 1023.8
20260503020357 44 275 0.0 0.0 0.00 0.00 0.00 85 1023.9
20260503015357 45 274 0.0 0.0 0.00 0.00 0.00 84 1023.9
20260503014855 45 274 0.0 0.0 0.00 0.00 0.00 84 1024.0
20260503014355 45 274 0.0 0.0 0.00 0.00 0.00 85 1023.9
20260503013855 45 274 0.0 0.0 0.00 0.00 0.00 85 1023.9
20260503013355 45 274 0.0 0.0 0.00 0.00 0.00 84 1023.9
20260503012855 45 274 0.0 0.0 0.00 0.00 0.00 84 1023.9
20260503012353 45 274 0.0 0.9 0.00 0.00 0.00 84 1023.9
20260503011351 45 274 0.0 0.0 0.00 0.00 0.00 85 1024.0
20260503010349 46 274 0.0 0.0 0.00 0.00 0.00 84 1024.0
20260503005847 46 274 0.0 0.0 0.00 0.00 0.00 84 1024.0
20260503004847 46 274 0.0 0.0 0.00 0.00 0.00 83 1024.1
20260503004346 46 274 0.0 0.0 0.00 0.00 0.00 82 1024.2
20260503003846 46 274 0.0 0.0 0.00 0.00 0.00 82 1024.1
20260503002843 47 274 0.0 0.0 0.00 0.00 0.00 81 1024.1
20260503002345 47 274 0.0 0.0 0.00 0.00 0.00 81 1024.1
20260503001843 47 274 0.0 0.0 0.00 0.00 0.00 81 1024.4
20260503001341 47 274 0.0 0.0 0.00 0.00 0.00 81 1024.4
20260503000341 48 274 0.0 0.0 0.00 0.00 0.00 80 1024.1
20260502235841 48 274 0.0 0.0 0.00 0.00 0.00 80 1024.1
20260502234839 48 276 0.0 0.0 0.00 0.00 0.00 80 1024.4
20260502233834 48 276 0.0 0.0 0.00 0.00 0.00 81 1024.4
20260502233337 48 275 0.0 0.0 0.00 0.00 0.00 81 1024.4
20260502232836 48 275 0.0 0.0 0.00 0.00 0.00 80 1024.4
20260502232335 48 275 0.0 0.0 0.00 0.00 0.00 80 1024.4
20260502231835 48 275 0.0 0.0 0.00 0.00 0.00 80 1024.5
20260502231335 48 275 0.0 0.9 0.00 0.00 0.00 80 1024.4
20260502230837 48 275 0.9 3.5 0.00 0.00 0.00 80 1024.5
20260502230334 48 272 0.9 3.5 0.00 0.00 0.00 80 1024.4
20260502225835 48 276 0.0 3.5 0.00 0.00 0.00 80 1024.4
20260502225335 48 269 0.0 2.6 0.00 0.00 0.00 79 1024.5
20260502224836 48 269 0.0 2.6 0.00 0.00 0.00 79 1024.5
20260502224334 49 269 0.0 2.6 0.00 0.00 0.00 79 1024.5
20260502223835 49 280 0.0 2.6 0.00 0.00 0.00 78 1024.6
20260502223335 49 274 0.0 1.7 0.00 0.00 0.00 78 1024.5
20260502222840 49 273 0.0 2.6 0.00 0.00 0.00 78 1024.5
20260502222334 49 274 0.0 2.6 0.00 0.00 0.00 78 1024.6
20260502221833 49 272 0.0 1.7 0.00 0.00 0.00 78 1024.6
20260502221333 49 278 0.9 4.3 0.00 0.00 0.00 77 1024.6
20260502220830 50 277 0.9 4.3 0.00 0.00 0.00 76 1024.6
20260502220329 50 275 0.9 3.5 0.00 0.00 0.00 75 1024.7
20260502215831 51 269 0.9 4.3 0.00 0.00 0.00 74 1024.6
20260502215329 51 271 1.7 4.3 0.00 0.00 0.00 73 1024.6
20260502214830 52 275 0.9 4.3 0.00 0.00 0.00 73 1024.6
20260502214330 52 273 0.9 3.5 0.00 0.00 0.00 73 1024.6
20260502213829 51 264 0.9 2.6 0.00 0.00 0.00 74 1024.5
20260502213330 52 276 0.9 4.3 0.00 0.00 0.00 73 1024.4
20260502212829 52 274 1.7 4.3 0.00 0.00 0.00 72 1024.4
20260502211829 52 271 2.6 5.2 0.00 0.00 0.00 72 1024.4
20260502211329 53 267 1.7 5.2 0.00 0.00 0.00 71 1024.4
20260502210844 53 251 1.7 4.3 0.00 0.00 0.00 71 1024.5
20260502210331 53 264 0.9 3.5 0.00 0.00 0.00 71 1024.4
20260502205830 53 268 0.0 2.6 0.00 0.00 0.00 71 1024.4
20260502205330 53 272 0.0 3.5 0.00 0.00 0.00 71 1024.4
20260502204329 54 276 0.0 0.9 0.00 0.00 0.00 71 1024.2
20260502203830 54 278 0.0 2.6 0.00 0.00 0.00 70 1024.4
20260502203327 54 282 0.9 3.5 0.00 0.00 0.00 70 1024.4
20260502202825 54 271 2.6 5.2 0.00 0.00 0.00 69 1024.2
20260502202325 55 270 0.9 5.2 0.00 0.00 0.00 68 1024.5
20260502201325 56 273 0.0 0.9 0.00 0.00 0.00 67 1024.2
20260502200827 56 273 0.0 0.9 0.00 0.00 0.00 67 1024.4
20260502200325 56 273 0.0 1.7 0.00 0.00 0.00 66 1024.2
20260502195828 56 273 0.0 1.7 0.00 0.00 0.00 66 1024.4
20260502194826 57 275 0.0 0.9 0.00 0.00 0.00 65 1024.1
20260502193821 58 273 0.0 2.6 0.00 0.00 0.00 63 1024.0
20260502193316 58 266 0.0 0.0 0.00 0.00 0.00 62 1023.9
20260502192815 58 266 0.0 0.0 0.00 0.00 0.00 62 1023.9
20260502192313 59 266 0.0 0.0 0.00 0.00 0.00 62 1023.9
20260502191815 59 269 0.0 0.0 0.00 0.00 0.00 61 1023.8
20260502191316 60 269 0.0 0.0 0.00 0.00 0.00 60 1023.8
20260502190828 60 269 0.0 0.0 0.00 0.00 0.00 60 1023.8
20260502190313 60 274 0.0 0.0 0.00 0.00 0.00 59 1023.7
20260502185813 61 290 0.0 0.0 0.00 0.00 0.00 59 1023.7
20260502185313 61 79 0.0 0.0 0.00 0.00 0.00 58 1023.6